| time (UTC) | temp F | wind direction | speed MPH | gust MPH | rain 1hr in | rain 24hr in | rain mn in | humidity % | barometer mb |
| 20260506173556 | 78 | 63 | 5.0 | 7.0 | 0.00 | 0.00 | 0.00 | 91 | 1010.8 |
| 20260506173101 | 78 | 79 | 4.0 | 7.0 | 0.00 | 0.00 | 0.00 | 90 | 1010.9 |
| 20260506172556 | 78 | 70 | 3.0 | 5.0 | 0.00 | 0.00 | 0.00 | 90 | 1010.9 |
| 20260506172055 | 78 | 87 | 2.0 | 5.0 | 0.00 | 0.00 | 0.00 | 91 | 1011.1 |
| 20260506171600 | 78 | 63 | 3.0 | 5.0 | 0.00 | 0.00 | 0.00 | 90 | 1011.2 |
| 20260506171055 | 78 | 64 | 4.0 | 5.0 | 0.00 | 0.00 | 0.00 | 90 | 1011.3 |
| 20260506170556 | 78 | 65 | 2.0 | 3.0 | 0.00 | 0.00 | 0.00 | 90 | 1011.3 |
| 20260506170057 | 78 | 24 | 1.0 | 5.0 | 0.00 | 0.00 | 0.00 | 90 | 1011.3 |
| 20260506165558 | 78 | 15 | 2.0 | 6.0 | 0.00 | 0.00 | 0.00 | 89 | 1011.4 |
| 20260506165056 | 78 | 39 | 4.0 | 6.0 | 0.00 | 0.00 | 0.00 | 89 | 1011.5 |
| 20260506164600 | 78 | 34 | 2.0 | 5.0 | 0.00 | 0.00 | 0.00 | 88 | 1011.5 |
| 20260506164058 | 78 | 16 | 4.0 | 5.0 | 0.00 | 0.00 | 0.00 | 88 | 1011.4 |
| 20260506163555 | 78 | 25 | 3.0 | 4.0 | 0.00 | 0.00 | 0.00 | 87 | 1011.4 |
| 20260506163055 | 78 | 17 | 3.0 | 4.0 | 0.00 | 0.00 | 0.00 | 87 | 1011.5 |
| 20260506162555 | 78 | 23 | 2.0 | 3.0 | 0.00 | 0.00 | 0.00 | 87 | 1011.5 |
| 20260506162058 | 78 | 66 | 1.0 | 3.0 | 0.00 | 0.00 | 0.00 | 87 | 1011.2 |
| 20260506161557 | 78 | 65 | 2.0 | 4.0 | 0.00 | 0.00 | 0.00 | 87 | 1011.2 |
| 20260506161058 | 78 | 105 | 2.0 | 4.0 | 0.00 | 0.00 | 0.00 | 86 | 1011.2 |
| 20260506160555 | 78 | 60 | 2.0 | 5.0 | 0.00 | 0.00 | 0.00 | 86 | 1011.1 |
| 20260506160059 | 78 | 135 | 2.0 | 6.0 | 0.00 | 0.00 | 0.00 | 86 | 1011.0 |
| 20260506155602 | 78 | 68 | 2.0 | 6.0 | 0.00 | 0.00 | 0.00 | 88 | 1010.7 |
| 20260506155054 | 78 | 79 | 4.0 | 6.0 | 0.00 | 0.00 | 0.00 | 88 | 1010.5 |
| 20260506154601 | 78 | 72 | 3.0 | 6.0 | 0.00 | 0.00 | 0.00 | 88 | 1010.4 |
| 20260506154056 | 78 | 85 | 4.0 | 6.0 | 0.00 | 0.00 | 0.00 | 88 | 1010.5 |
| 20260506153556 | 78 | 124 | 4.0 | 6.0 | 0.00 | 0.00 | 0.00 | 87 | 1010.4 |
| 20260506153110 | 78 | 139 | 2.0 | 5.0 | 0.00 | 0.00 | 0.00 | 88 | 1010.3 |
| 20260506152555 | 78 | 95 | 3.0 | 4.0 | 0.00 | 0.00 | 0.00 | 88 | 1010.3 |
| 20260506152055 | 78 | 99 | 3.0 | 6.0 | 0.00 | 0.00 | 0.00 | 88 | 1010.3 |
| 20260506151555 | 77 | 109 | 3.0 | 6.0 | 0.00 | 0.00 | 0.00 | 88 | 1010.3 |
| 20260506151100 | 78 | 105 | 3.0 | 5.0 | 0.00 | 0.00 | 0.00 | 88 | 1010.4 |
| 20260506150555 | 77 | 148 | 2.0 | 4.0 | 0.00 | 0.00 | 0.00 | 89 | 1010.5 |
| 20260506145555 | 77 | 147 | 2.0 | 4.0 | 0.00 | 0.00 | 0.00 | 89 | 1010.4 |
| 20260506145055 | 77 | 165 | 2.0 | 6.0 | 0.00 | 0.00 | 0.00 | 89 | 1010.4 |
| 20260506144558 | 77 | 155 | 3.0 | 9.0 | 0.00 | 0.00 | 0.00 | 90 | 1010.2 |
| 20260506144055 | 77 | 133 | 5.0 | 9.0 | 0.00 | 0.00 | 0.00 | 89 | 1010.1 |
| 20260506143555 | 77 | 149 | 5.0 | 8.0 | 0.00 | 0.00 | 0.00 | 89 | 1010.0 |
| 20260506143054 | 77 | 150 | 5.0 | 8.0 | 0.00 | 0.00 | 0.00 | 90 | 1010.0 |
| 20260506142555 | 77 | 138 | 5.0 | 7.0 | 0.00 | 0.00 | 0.00 | 91 | 1009.8 |
| 20260506142055 | 77 | 147 | 4.0 | 8.0 | 0.00 | 0.00 | 0.00 | 91 | 1009.8 |
| 20260506141555 | 76 | 138 | 5.0 | 8.0 | 0.00 | 0.00 | 0.00 | 91 | 1009.6 |
| 20260506141055 | 76 | 156 | 5.0 | 10.0 | 0.00 | 0.00 | 0.00 | 92 | 1009.6 |
| 20260506140558 | 76 | 117 | 6.0 | 10.0 | 0.00 | 0.00 | 0.00 | 92 | 1009.4 |
| 20260506140107 | 76 | 131 | 6.0 | 10.0 | 0.00 | 0.00 | 0.00 | 92 | 1009.5 |
| 20260506135555 | 75 | 136 | 6.0 | 8.0 | 0.00 | 0.00 | 0.00 | 93 | 1009.4 |
| 20260506135055 | 75 | 162 | 6.0 | 8.0 | 0.00 | 0.00 | 0.00 | 93 | 1009.5 |
| 20260506134553 | 75 | 131 | 5.0 | 10.0 | 0.00 | 0.00 | 0.00 | 93 | 1009.4 |
| 20260506134058 | 75 | 141 | 5.0 | 10.0 | 0.00 | 0.00 | 0.00 | 93 | 1009.5 |
| 20260506133555 | 75 | 117 | 7.0 | 10.0 | 0.00 | 0.00 | 0.00 | 93 | 1009.5 |
| 20260506133053 | 75 | 139 | 5.0 | 7.0 | 0.00 | 0.00 | 0.00 | 93 | 1009.6 |
| 20260506132554 | 75 | 134 | 5.0 | 7.0 | 0.00 | 0.00 | 0.00 | 94 | 1009.6 |
| 20260506132056 | 75 | 135 | 4.0 | 7.0 | 0.00 | 0.00 | 0.00 | 94 | 1009.6 |
| 20260506131556 | 75 | 129 | 4.0 | 6.0 | 0.00 | 0.00 | 0.00 | 94 | 1009.7 |
| 20260506131055 | 75 | 127 | 4.0 | 7.0 | 0.00 | 0.00 | 0.00 | 94 | 1009.5 |
| 20260506130555 | 75 | 133 | 4.0 | 7.0 | 0.00 | 0.00 | 0.00 | 94 | 1009.5 |
| 20260506130058 | 75 | 130 | 4.0 | 9.0 | 0.00 | 0.00 | 0.00 | 94 | 1009.5 |
| 20260506125555 | 74 | 137 | 5.0 | 9.0 | 0.00 | 0.00 | 0.00 | 94 | 1009.5 |
| 20260506125055 | 74 | 132 | 5.0 | 8.0 | 0.00 | 0.00 | 0.00 | 94 | 1009.4 |
| 20260506124556 | 74 | 134 | 4.0 | 6.0 | 0.00 | 0.00 | 0.00 | 95 | 1009.4 |
| 20260506124055 | 74 | 141 | 4.0 | 6.0 | 0.00 | 0.00 | 0.00 | 95 | 1009.4 |
| 20260506123555 | 74 | 160 | 4.0 | 6.0 | 0.00 | 0.00 | 0.00 | 95 | 1009.4 |
| 20260506123055 | 74 | 176 | 4.0 | 6.0 | 0.00 | 0.00 | 0.00 | 95 | 1009.4 |
| 20260506122556 | 74 | 145 | 3.0 | 6.0 | 0.00 | 0.00 | 0.00 | 95 | 1009.3 |
| 20260506122055 | 74 | 158 | 3.0 | 6.0 | 0.00 | 0.00 | 0.00 | 95 | 1009.2 |
| 20260506121557 | 74 | 152 | 3.0 | 6.0 | 0.00 | 0.00 | 0.00 | 95 | 1009.2 |
| 20260506121055 | 74 | 166 | 4.0 | 6.0 | 0.00 | 0.00 | 0.00 | 95 | 1009.1 |
| 20260506120555 | 74 | 155 | 4.0 | 6.0 | 0.00 | 0.00 | 0.00 | 95 | 1009.3 |
| 20260506120057 | 74 | 143 | 3.0 | 6.0 | 0.00 | 0.00 | 0.00 | 95 | 1009.2 |
| 20260506115555 | 74 | 150 | 4.0 | 6.0 | 0.00 | 0.00 | 0.00 | 95 | 1009.2 |
| 20260506115054 | 74 | 135 | 3.0 | 6.0 | 0.00 | 0.00 | 0.00 | 95 | 1009.1 |
| 20260506114559 | 74 | 150 | 3.0 | 7.0 | 0.00 | 0.00 | 0.00 | 95 | 1009.1 |
| 20260506114054 | 74 | 150 | 3.0 | 7.0 | 0.00 | 0.00 | 0.00 | 95 | 1009.0 |
| 20260506113555 | 74 | 154 | 4.0 | 8.0 | 0.00 | 0.00 | 0.00 | 96 | 1009.0 |
| 20260506113055 | 74 | 158 | 5.0 | 8.0 | 0.00 | 0.00 | 0.00 | 96 | 1008.9 |
| 20260506112556 | 73 | 153 | 5.0 | 7.0 | 0.00 | 0.00 | 0.00 | 96 | 1008.9 |
| 20260506112055 | 73 | 159 | 4.0 | 7.0 | 0.00 | 0.00 | 0.00 | 96 | 1008.8 |
| 20260506111554 | 73 | 150 | 4.0 | 7.0 | 0.00 | 0.00 | 0.00 | 96 | 1008.8 |
| 20260506111055 | 73 | 146 | 4.0 | 8.0 | 0.00 | 0.00 | 0.00 | 96 | 1008.8 |
| 20260506110555 | 73 | 160 | 4.0 | 8.0 | 0.00 | 0.00 | 0.00 | 96 | 1008.8 |
| 20260506110057 | 73 | 189 | 3.0 | 8.0 | 0.00 | 0.00 | 0.00 | 95 | 1008.8 |
| 20260506105556 | 73 | 170 | 5.0 | 9.0 | 0.00 | 0.00 | 0.00 | 95 | 1008.6 |
| 20260506105057 | 73 | 195 | 4.0 | 10.0 | 0.00 | 0.00 | 0.00 | 95 | 1008.7 |
| 20260506104600 | 73 | 161 | 5.0 | 10.0 | 0.00 | 0.00 | 0.00 | 95 | 1008.5 |
| 20260506104055 | 73 | 148 | 6.0 | 10.0 | 0.00 | 0.00 | 0.00 | 95 | 1008.3 |
| 20260506103555 | 73 | 161 | 6.0 | 10.0 | 0.00 | 0.00 | 0.00 | 95 | 1008.4 |
| 20260506103059 | 73 | 179 | 7.0 | 10.0 | 0.00 | 0.00 | 0.00 | 95 | 1008.3 |
| 20260506102556 | 73 | 153 | 7.0 | 9.0 | 0.00 | 0.00 | 0.00 | 95 | 1008.1 |
| 20260506102059 | 73 | 160 | 5.0 | 7.0 | 0.00 | 0.00 | 0.00 | 95 | 1008.2 |
| 20260506101600 | 73 | 175 | 4.0 | 9.0 | 0.00 | 0.00 | 0.00 | 95 | 1008.1 |
| 20260506101055 | 73 | 157 | 6.0 | 9.0 | 0.00 | 0.00 | 0.00 | 95 | 1008.0 |
| 20260506100556 | 73 | 154 | 6.0 | 9.0 | 0.00 | 0.00 | 0.00 | 95 | 1007.9 |
| 20260506095555 | 73 | 177 | 6.0 | 9.0 | 0.00 | 0.00 | 0.00 | 95 | 1008.1 |
| 20260506095055 | 73 | 153 | 5.0 | 9.0 | 0.00 | 0.00 | 0.00 | 95 | 1008.1 |
| 20260506094559 | 73 | 157 | 5.0 | 8.0 | 0.00 | 0.00 | 0.00 | 95 | 1008.0 |
| 20260506094058 | 73 | 163 | 5.0 | 8.0 | 0.00 | 0.00 | 0.00 | 95 | 1008.1 |
| 20260506093554 | 73 | 159 | 4.0 | 8.0 | 0.00 | 0.00 | 0.00 | 95 | 1008.1 |
| 20260506093056 | 73 | 179 | 5.0 | 7.0 | 0.00 | 0.00 | 0.00 | 95 | 1008.1 |
| 20260506092556 | 73 | 152 | 5.0 | 7.0 | 0.00 | 0.00 | 0.00 | 95 | 1008.1 |
| 20260506092055 | 73 | 165 | 4.0 | 7.0 | 0.00 | 0.00 | 0.00 | 94 | 1008.1 |
| 20260506091600 | 73 | 148 | 4.0 | 8.0 | 0.00 | 0.00 | 0.00 | 95 | 1008.1 |
| 20260506091059 | 73 | 155 | 4.0 | 8.0 | 0.00 | 0.00 | 0.00 | 94 | 1008.0 |
| 20260506090558 | 73 | 185 | 5.0 | 9.0 | 0.00 | 0.00 | 0.00 | 94 | 1007.9 |
| 20260506090104 | 73 | 158 | 6.0 | 9.0 | 0.00 | 0.00 | 0.00 | 94 | 1007.9 |
| 20260506085556 | 74 | 170 | 5.0 | 10.0 | 0.00 | 0.00 | 0.00 | 94 | 1007.9 |
| 20260506085055 | 74 | 159 | 6.0 | 10.0 | 0.00 | 0.00 | 0.00 | 94 | 1007.9 |
| 20260506084558 | 74 | 164 | 7.0 | 10.0 | 0.00 | 0.00 | 0.00 | 94 | 1007.9 |
| 20260506084055 | 74 | 144 | 6.0 | 9.0 | 0.00 | 0.00 | 0.00 | 94 | 1007.9 |
| 20260506083554 | 74 | 141 | 7.0 | 9.0 | 0.00 | 0.00 | 0.00 | 94 | 1007.9 |
| 20260506083056 | 74 | 150 | 5.0 | 9.0 | 0.00 | 0.00 | 0.00 | 93 | 1008.1 |
| 20260506082555 | 74 | 174 | 6.0 | 11.0 | 0.00 | 0.00 | 0.00 | 93 | 1008.0 |
| 20260506082055 | 74 | 154 | 7.0 | 11.0 | 0.00 | 0.00 | 0.00 | 93 | 1008.0 |
| 20260506081557 | 74 | 174 | 6.0 | 10.0 | 0.00 | 0.00 | 0.00 | 93 | 1008.0 |
| 20260506081056 | 74 | 154 | 8.0 | 10.0 | 0.00 | 0.00 | 0.00 | 93 | 1008.0 |
| 20260506080555 | 74 | 156 | 7.0 | 10.0 | 0.00 | 0.00 | 0.00 | 93 | 1008.0 |
| 20260506080106 | 74 | 152 | 8.0 | 11.0 | 0.00 | 0.00 | 0.00 | 93 | 1008.0 |
| 20260506073055 | 75 | 170 | 6.0 | 11.0 | 0.00 | 0.00 | 0.00 | 93 | 1008.7 |
| 20260506072555 | 75 | 156 | 6.0 | 12.0 | 0.00 | 0.00 | 0.00 | 93 | 1008.7 |
| 20260506072055 | 75 | 163 | 7.0 | 12.0 | 0.00 | 0.00 | 0.00 | 93 | 1008.7 |
| 20260506071604 | 75 | 174 | 8.0 | 12.0 | 0.00 | 0.00 | 0.00 | 93 | 1008.8 |
| 20260506071055 | 75 | 150 | 7.0 | 11.0 | 0.00 | 0.00 | 0.00 | 93 | 1008.8 |
| 20260506070555 | 75 | 162 | 7.0 | 12.0 | 0.00 | 0.00 | 0.00 | 93 | 1008.9 |
| 20260506062055 | 74 | 155 | 8.0 | 11.0 | 0.00 | 0.00 | 0.00 | 93 | 1008.9 |
| 20260506061554 | 74 | 146 | 6.0 | 10.0 | 0.00 | 0.00 | 0.00 | 93 | 1009.1 |
| 20260506061056 | 74 | 160 | 7.0 | 10.0 | 0.00 | 0.00 | 0.00 | 93 | 1009.1 |
| 20260506060555 | 74 | 161 | 6.0 | 10.0 | 0.00 | 0.00 | 0.00 | 93 | 1009.1 |
| 20260506051052 | 75 | 153 | 5.0 | 9.0 | 0.00 | 0.00 | 0.00 | 91 | 1009.2 |
| 20260506050551 | 75 | 162 | 6.0 | 9.0 | 0.00 | 0.00 | 0.00 | 91 | 1009.2 |
| 20260506050107 | 75 | 163 | 6.0 | 9.0 | 0.00 | 0.00 | 0.00 | 91 | 1009.2 |
| 20260506045051 | 76 | 151 | 8.0 | 12.0 | 0.00 | 0.00 | 0.00 | 90 | 1009.1 |
| 20260506044554 | 76 | 155 | 8.0 | 12.0 | 0.00 | 0.00 | 0.00 | 90 | 1009.2 |
| 20260506044051 | 76 | 166 | 7.0 | 12.0 | 0.00 | 0.00 | 0.00 | 90 | 1009.2 |
| 20260506043554 | 76 | 167 | 8.0 | 12.0 | 0.00 | 0.00 | 0.00 | 90 | 1009.2 |
| 20260506043053 | 76 | 155 | 8.0 | 13.0 | 0.00 | 0.00 | 0.00 | 90 | 1009.1 |
| 20260506042554 | 76 | 157 | 10.0 | 14.0 | 0.00 | 0.00 | 0.00 | 90 | 1009.0 |
| 20260506042054 | 76 | 146 | 8.0 | 14.0 | 0.00 | 0.00 | 0.00 | 90 | 1008.9 |
| 20260506041600 | 76 | 204 | 9.0 | 14.0 | 0.00 | 0.00 | 0.00 | 90 | 1008.9 |
| 20260506041050 | 76 | 154 | 9.0 | 14.0 | 0.00 | 0.00 | 0.00 | 90 | 1008.9 |
| 20260506040551 | 76 | 175 | 10.0 | 14.0 | 0.00 | 0.00 | 0.00 | 90 | 1008.8 |
| 20260506040055 | 76 | 153 | 9.0 | 14.0 | 0.00 | 0.00 | 0.00 | 90 | 1008.8 |
| 20260506035555 | 76 | 161 | 7.0 | 12.0 | 0.00 | 0.00 | 0.00 | 90 | 1008.8 |
| 20260506035053 | 76 | 163 | 8.0 | 13.0 | 0.00 | 0.00 | 0.00 | 90 | 1008.8 |
| 20260506034610 | 76 | 152 | 8.0 | 13.0 | 0.00 | 0.00 | 0.00 | 90 | 1008.8 |
| 20260506034056 | 76 | 160 | 9.0 | 13.0 | 0.00 | 0.00 | 0.00 | 89 | 1008.7 |
| 20260506033551 | 76 | 146 | 8.0 | 11.0 | 0.00 | 0.00 | 0.00 | 89 | 1008.8 |
| 20260506033054 | 76 | 156 | 8.0 | 11.0 | 0.00 | 0.00 | 0.00 | 89 | 1008.8 |
| 20260506032554 | 76 | 160 | 6.0 | 11.0 | 0.00 | 0.00 | 0.00 | 89 | 1008.7 |
| 20260506032053 | 76 | 147 | 8.0 | 11.0 | 0.00 | 0.00 | 0.00 | 89 | 1008.7 |
| 20260506031556 | 76 | 162 | 7.0 | 11.0 | 0.00 | 0.00 | 0.00 | 89 | 1008.7 |
| 20260506031054 | 76 | 154 | 5.0 | 7.0 | 0.00 | 0.00 | 0.00 | 89 | 1008.7 |
| 20260506030550 | 76 | 154 | 4.0 | 7.0 | 0.00 | 0.00 | 0.00 | 89 | 1008.6 |
| 20260506030056 | 76 | 151 | 5.0 | 9.0 | 0.00 | 0.00 | 0.00 | 89 | 1008.4 |
| 20260506025555 | 76 | 168 | 6.0 | 9.0 | 0.00 | 0.00 | 0.00 | 89 | 1008.3 |
| 20260506025056 | 76 | 158 | 6.0 | 8.0 | 0.00 | 0.00 | 0.00 | 89 | 1008.2 |
| 20260506024612 | 76 | 136 | 5.0 | 7.0 | 0.00 | 0.00 | 0.00 | 89 | 1008.2 |
| 20260506024051 | 77 | 165 | 5.0 | 7.0 | 0.00 | 0.00 | 0.00 | 89 | 1008.1 |
| 20260506023550 | 76 | 136 | 3.0 | 8.0 | 0.00 | 0.00 | 0.00 | 89 | 1008.1 |
| 20260506023055 | 76 | 126 | 4.0 | 8.0 | 0.00 | 0.00 | 0.00 | 89 | 1008.0 |
| 20260506022554 | 76 | 148 | 5.0 | 8.0 | 0.00 | 0.00 | 0.00 | 89 | 1007.8 |
| 20260506022051 | 76 | 150 | 3.0 | 6.0 | 0.00 | 0.00 | 0.00 | 89 | 1007.8 |
| 20260506021554 | 76 | 183 | 3.0 | 6.0 | 0.00 | 0.00 | 0.00 | 89 | 1007.8 |
| 20260506021054 | 76 | 149 | 3.0 | 6.0 | 0.00 | 0.00 | 0.00 | 89 | 1007.7 |
| 20260506020555 | 77 | 154 | 4.0 | 7.0 | 0.00 | 0.00 | 0.00 | 88 | 1007.6 |
| 20260506020051 | 77 | 160 | 4.0 | 7.0 | 0.00 | 0.00 | 0.00 | 88 | 1007.7 |
| 20260506015554 | 77 | 150 | 5.0 | 9.0 | 0.00 | 0.00 | 0.00 | 88 | 1007.6 |
| 20260506015054 | 77 | 153 | 5.0 | 9.0 | 0.00 | 0.00 | 0.00 | 87 | 1007.6 |
| 20260506014553 | 77 | 155 | 6.0 | 13.0 | 0.00 | 0.00 | 0.00 | 87 | 1007.5 |
| 20260506014057 | 77 | 146 | 6.0 | 13.0 | 0.00 | 0.00 | 0.00 | 87 | 1007.3 |
| 20260506013555 | 77 | 163 | 8.0 | 12.0 | 0.00 | 0.00 | 0.00 | 87 | 1007.2 |
| 20260506013107 | 77 | 142 | 8.0 | 12.0 | 0.00 | 0.00 | 0.00 | 86 | 1007.2 |
| 20260506012558 | 77 | 148 | 7.0 | 12.0 | 0.00 | 0.00 | 0.00 | 86 | 1007.0 |
| 20260506012053 | 77 | 154 | 8.0 | 13.0 | 0.00 | 0.00 | 0.00 | 86 | 1007.0 |
| 20260506011606 | 78 | 148 | 9.0 | 13.0 | 0.00 | 0.00 | 0.00 | 85 | 1006.9 |
| 20260506011053 | 78 | 163 | 9.0 | 13.0 | 0.00 | 0.00 | 0.00 | 85 | 1006.8 |
| 20260506010554 | 78 | 150 | 10.0 | 13.0 | 0.00 | 0.00 | 0.00 | 85 | 1006.8 |
| 20260506010056 | 78 | 158 | 9.0 | 12.0 | 0.00 | 0.00 | 0.00 | 84 | 1006.8 |
| 20260506005554 | 78 | 148 | 9.0 | 13.0 | 0.00 | 0.00 | 0.00 | 84 | 1006.7 |
| 20260506005055 | 79 | 157 | 9.0 | 14.0 | 0.00 | 0.00 | 0.00 | 84 | 1006.8 |
| 20260506004555 | 79 | 141 | 8.0 | 14.0 | 0.00 | 0.00 | 0.00 | 83 | 1006.8 |
| 20260506004053 | 79 | 159 | 11.0 | 15.0 | 0.00 | 0.00 | 0.00 | 83 | 1006.7 |
| 20260506003552 | 79 | 144 | 10.0 | 15.0 | 0.00 | 0.00 | 0.00 | 82 | 1006.5 |
| 20260506003055 | 79 | 153 | 10.0 | 14.0 | 0.00 | 0.00 | 0.00 | 82 | 1006.6 |
| 20260506002554 | 79 | 133 | 11.0 | 14.0 | 0.00 | 0.00 | 0.00 | 82 | 1006.6 |
| 20260506002054 | 79 | 150 | 9.0 | 13.0 | 0.00 | 0.00 | 0.00 | 82 | 1006.5 |
| 20260506001554 | 79 | 143 | 8.0 | 15.0 | 0.00 | 0.00 | 0.00 | 82 | 1006.5 |
| 20260506001054 | 79 | 155 | 8.0 | 15.0 | 0.00 | 0.00 | 0.00 | 82 | 1006.6 |
| 20260506000554 | 79 | 146 | 10.0 | 18.0 | 0.00 | 0.00 | 0.00 | 82 | 1006.5 |
| 20260506000055 | 80 | 155 | 11.0 | 18.0 | 0.00 | 0.00 | 0.00 | 82 | 1006.5 |
| 20260505235554 | 80 | 146 | 12.0 | 18.0 | 0.00 | 0.00 | 0.00 | 82 | 1006.5 |
| 20260505235054 | 80 | 148 | 11.0 | 14.0 | 0.00 | 0.00 | 0.00 | 82 | 1006.5 |
| 20260505234557 | 80 | 138 | 9.0 | 16.0 | 0.00 | 0.00 | 0.00 | 81 | 1006.4 |
| 20260505234051 | 80 | 166 | 11.0 | 17.0 | 0.00 | 0.00 | 0.00 | 81 | 1006.4 |
| 20260505233554 | 81 | 139 | 11.0 | 17.0 | 0.00 | 0.00 | 0.00 | 80 | 1006.3 |
| 20260505233053 | 81 | 139 | 11.0 | 17.0 | 0.00 | 0.00 | 0.00 | 80 | 1006.3 |
| 20260505232554 | 81 | 145 | 10.0 | 14.0 | 0.00 | 0.00 | 0.00 | 80 | 1006.4 |
| 20260505232058 | 81 | 146 | 10.0 | 14.0 | 0.00 | 0.00 | 0.00 | 80 | 1006.4 |
| 20260505231633 | 82 | 140 | 11.0 | 14.0 | 0.00 | 0.00 | 0.00 | 79 | 1006.3 |
| 20260505231058 | 82 | 146 | 11.0 | 14.0 | 0.00 | 0.00 | 0.00 | 78 | 1006.1 |
| 20260505230556 | 82 | 213 | 9.0 | 14.0 | 0.00 | 0.00 | 0.00 | 77 | 1006.1 |
| 20260505230106 | 82 | 158 | 8.0 | 18.0 | 0.00 | 0.00 | 0.00 | 77 | 1006.2 |
| 20260505225556 | 83 | 165 | 12.0 | 18.0 | 0.00 | 0.00 | 0.00 | 77 | 1006.2 |
| 20260505225056 | 83 | 159 | 11.0 | 16.0 | 0.00 | 0.00 | 0.00 | 77 | 1006.2 |
| 20260505224556 | 83 | 145 | 11.0 | 16.0 | 0.00 | 0.00 | 0.00 | 76 | 1006.1 |
| 20260505224055 | 82 | 156 | 9.0 | 18.0 | 0.00 | 0.00 | 0.00 | 76 | 1006.1 |
| 20260505223555 | 82 | 129 | 10.0 | 18.0 | 0.00 | 0.00 | 0.00 | 77 | 1006.2 |
| 20260505223110 | 82 | 165 | 12.0 | 19.0 | 0.00 | 0.00 | 0.00 | 76 | 1006.1 |
| 20260505222555 | 83 | 147 | 11.0 | 19.0 | 0.00 | 0.00 | 0.00 | 77 | 1006.3 |
| 20260505222055 | 82 | 161 | 14.0 | 19.0 | 0.00 | 0.00 | 0.00 | 77 | 1006.2 |
| 20260505221557 | 83 | 146 | 12.0 | 18.0 | 0.00 | 0.00 | 0.00 | 77 | 1006.2 |
| 20260505221058 | 83 | 154 | 12.0 | 20.0 | 0.00 | 0.00 | 0.00 | 76 | 1006.2 |
| 20260505220600 | 83 | 162 | 12.0 | 20.0 | 0.00 | 0.00 | 0.00 | 76 | 1006.3 |
| 20260505220056 | 83 | 165 | 13.0 | 19.0 | 0.00 | 0.00 | 0.00 | 77 | 1006.2 |
| 20260505215556 | 83 | 160 | 14.0 | 19.0 | 0.00 | 0.00 | 0.00 | 76 | 1006.2 |
| 20260505215056 | 83 | 176 | 13.0 | 19.0 | 0.00 | 0.00 | 0.00 | 76 | 1006.4 |
| 20260505214557 | 83 | 155 | 11.0 | 19.0 | 0.00 | 0.00 | 0.00 | 78 | 1006.5 |
| 20260505214055 | 83 | 143 | 13.0 | 19.0 | 0.00 | 0.00 | 0.00 | 79 | 1006.4 |
| 20260505213600 | 83 | 150 | 13.0 | 22.0 | 0.00 | 0.00 | 0.00 | 77 | 1006.5 |
| 20260505213102 | 83 | 149 | 15.0 | 22.0 | 0.00 | 0.00 | 0.00 | 76 | 1006.6 |
| 20260505212555 | 83 | 142 | 14.0 | 19.0 | 0.00 | 0.00 | 0.00 | 76 | 1006.7 |
| 20260505212056 | 83 | 146 | 14.0 | 19.0 | 0.00 | 0.00 | 0.00 | 76 | 1006.9 |
| 20260505211555 | 83 | 153 | 14.0 | 19.0 | 0.00 | 0.00 | 0.00 | 77 | 1007.0 |
| 20260505211057 | 84 | 147 | 11.0 | 16.0 | 0.00 | 0.00 | 0.00 | 76 | 1006.9 |
| 20260505210556 | 84 | 155 | 12.0 | 16.0 | 0.00 | 0.00 | 0.00 | 73 | 1007.1 |
| 20260505210056 | 84 | 153 | 11.0 | 18.0 | 0.00 | 0.00 | 0.00 | 74 | 1007.2 |
| 20260505205555 | 84 | 179 | 13.0 | 18.0 | 0.00 | 0.00 | 0.00 | 74 | 1007.3 |
| 20260505205056 | 84 | 149 | 12.0 | 16.0 | 0.00 | 0.00 | 0.00 | 75 | 1007.3 |
| 20260505204601 | 84 | 168 | 11.0 | 16.0 | 0.00 | 0.00 | 0.00 | 75 | 1007.4 |
| 20260505204056 | 84 | 193 | 9.0 | 17.0 | 0.00 | 0.00 | 0.00 | 75 | 1007.6 |
| 20260505203555 | 84 | 156 | 12.0 | 17.0 | 0.00 | 0.00 | 0.00 | 75 | 1007.7 |
| 20260505203116 | 83 | 169 | 11.0 | 15.0 | 0.00 | 0.00 | 0.00 | 75 | 1007.9 |
| 20260505202557 | 84 | 168 | 11.0 | 16.0 | 0.00 | 0.00 | 0.00 | 74 | 1007.9 |
| 20260505202056 | 84 | 148 | 11.0 | 16.0 | 0.00 | 0.00 | 0.00 | 76 | 1007.9 |
| 20260505201557 | 84 | 162 | 11.0 | 15.0 | 0.00 | 0.00 | 0.00 | 74 | 1008.0 |
| 20260505201056 | 83 | 172 | 9.0 | 16.0 | 0.00 | 0.00 | 0.00 | 76 | 1008.1 |
| 20260505200558 | 83 | 172 | 10.0 | 16.0 | 0.00 | 0.00 | 0.00 | 75 | 1008.1 |
| 20260505200054 | 83 | 190 | 11.0 | 16.0 | 0.00 | 0.00 | 0.00 | 77 | 1008.2 |
| 20260505195558 | 83 | 171 | 9.0 | 15.0 | 0.00 | 0.00 | 0.00 | 76 | 1008.2 |
| 20260505195055 | 83 | 160 | 10.0 | 15.0 | 0.00 | 0.00 | 0.00 | 76 | 1008.3 |
| 20260505194610 | 83 | 167 | 10.0 | 17.0 | 0.00 | 0.00 | 0.00 | 76 | 1008.4 |
| 20260505194059 | 84 | 195 | 12.0 | 17.0 | 0.00 | 0.00 | 0.00 | 74 | 1008.4 |
| 20260505193556 | 83 | 176 | 11.0 | 16.0 | 0.00 | 0.00 | 0.00 | 75 | 1008.3 |
| 20260505193056 | 83 | 190 | 10.0 | 16.0 | 0.00 | 0.00 | 0.00 | 76 | 1008.6 |
| 20260505192559 | 82 | 198 | 10.0 | 15.0 | 0.00 | 0.00 | 0.00 | 76 | 1008.6 |
| 20260505192056 | 82 | 199 | 9.0 | 14.0 | 0.00 | 0.00 | 0.00 | 79 | 1008.8 |
| 20260505191554 | 82 | 211 | 10.0 | 13.0 | 0.00 | 0.00 | 0.00 | 79 | 1008.7 |
| 20260505191057 | 81 | 191 | 9.0 | 12.0 | 0.00 | 0.00 | 0.00 | 79 | 1008.8 |
| 20260505190559 | 81 | 175 | 9.0 | 12.0 | 0.00 | 0.00 | 0.00 | 80 | 1008.8 |
| 20260505190054 | 81 | 191 | 8.0 | 12.0 | 0.00 | 0.00 | 0.00 | 78 | 1008.9 |
| 20260505185559 | 81 | 214 | 7.0 | 14.0 | 0.00 | 0.00 | 0.00 | 81 | 1008.9 |
| 20260505185056 | 80 | 191 | 7.0 | 14.0 | 0.00 | 0.00 | 0.00 | 82 | 1008.9 |
| 20260505184556 | 80 | 157 | 9.0 | 14.0 | 0.00 | 0.00 | 0.00 | 81 | 1009.0 |
| 20260505184056 | 81 | 191 | 9.0 | 14.0 | 0.00 | 0.00 | 0.00 | 79 | 1009.0 |
| 20260505183557 | 81 | 162 | 10.0 | 14.0 | 0.00 | 0.00 | 0.00 | 80 | 1009.0 |
| 20260505183101 | 81 | 181 | 9.0 | 15.0 | 0.00 | 0.00 | 0.00 | 79 | 1009.0 |
| 20260505182556 | 81 | 157 | 9.0 | 15.0 | 0.00 | 0.00 | 0.00 | 80 | 1009.0 |
| 20260505182056 | 80 | 200 | 10.0 | 16.0 | 0.00 | 0.00 | 0.00 | 80 | 1009.1 |
| 20260505181554 | 80 | 210 | 10.0 | 16.0 | 0.00 | 0.00 | 0.00 | 81 | 1009.1 |
| 20260505181056 | 80 | 203 | 10.0 | 16.0 | 0.00 | 0.00 | 0.00 | 81 | 1009.2 |
| 20260505180556 | 79 | 193 | 10.0 | 16.0 | 0.00 | 0.00 | 0.00 | 81 | 1009.2 |
| 20260505175556 | 79 | 210 | 10.0 | 16.0 | 0.00 | 0.00 | 0.00 | 82 | 1009.2 |
| 20260505175057 | 79 | 184 | 10.0 | 16.0 | 0.00 | 0.00 | 0.00 | 83 | 1009.3 |
| 20260505174558 | 79 | 233 | 12.0 | 16.0 | 0.00 | 0.00 | 0.00 | 82 | 1009.4 |
| 20260505174056 | 79 | 203 | 10.0 | 17.0 | 0.00 | 0.00 | 0.00 | 82 | 1009.4 |